When you browse on this site, cookies collect data to enhance your experience and personalize the content and advertising you see.
Visit our Privacy Policy to learn more. By continuing to use the site, you agree to this use of cookies and data.

Hourly Weather Haradok

Today, 9 July, Thursday

Time Temperature Precipitation Wind Pressure Humidity
00:00 +12°C° 0.1 mm 2 mps 745 mmHg 88%
01:00 +12°C° 0.1 mm 2 mps 745 mmHg 90%
02:00 +13°C° 0 mm 2 mps 745 mmHg 90%
03:00 +12°C° 0 mm 2 mps 745 mmHg 92%
04:00 +12°C° 0 mm 2 mps 745 mmHg 94%
05:00 +10°C° 0 mm 3 mps 746 mmHg 95%
06:00 +11°C° 0 mm 3 mps 746 mmHg 87%
07:00 +13°C° 0 mm 3 mps 746 mmHg 79%
08:00 +14°C° 0 mm 4 mps 747 mmHg 69%
09:00 +15°C° 0 mm 4 mps 747 mmHg 65%
10:00 +17°C° 0 mm 4 mps 747 mmHg 61%
11:00 +16°C° 0 mm 5 mps 748 mmHg 58%
12:00 +18°C° 0 mm 4 mps 748 mmHg 57%
13:00 +18°C° 0 mm 4 mps 748 mmHg 57%
14:00 +18°C° 0 mm 4 mps 748 mmHg 56%
15:00 +18°C° 0 mm 4 mps 748 mmHg 57%
16:00 +19°C° 0 mm 4 mps 748 mmHg 57%
17:00 +19°C° 0 mm 4 mps 748 mmHg 58%
18:00 +18°C° 0 mm 3 mps 748 mmHg 65%
19:00 +16°C° 0 mm 2 mps 748 mmHg 72%
20:00 +15°C° 0 mm 2 mps 748 mmHg 79%
21:00 +14°C° 0 mm 2 mps 748 mmHg 82%
22:00 +13°C° 0 mm 2 mps 748 mmHg 86%
23:00 +12°C° 0 mm 2 mps 749 mmHg 89%

Tomorrow, 10 July, Friday

Time Temperature Precipitation Wind Pressure Humidity
00:00 +10°C° 0 mm 2 mps 749 mmHg 91%
01:00 +10°C° 0 mm 2 mps 749 mmHg 92%
02:00 +9°C° 0 mm 2 mps 749 mmHg 94%
03:00 +10°C° 0 mm 2 mps 749 mmHg 92%
04:00 +10°C° 0 mm 2 mps 749 mmHg 90%
05:00 +11°C° 0 mm 3 mps 749 mmHg 88%
06:00 +12°C° 0 mm 3 mps 748 mmHg 85%
07:00 +14°C° 0 mm 4 mps 748 mmHg 81%
08:00 +15°C° 0 mm 5 mps 748 mmHg 78%
09:00 +15°C° 0.4 mm 5 mps 748 mmHg 82%
10:00 +14°C° 0.4 mm 6 mps 747 mmHg 87%
11:00 +14°C° 0.4 mm 6 mps 747 mmHg 92%
12:00 +14°C° 1.1 mm 6 mps 747 mmHg 92%
13:00 +15°C° 1.1 mm 5 mps 746 mmHg 93%
14:00 +16°C° 1.1 mm 5 mps 746 mmHg 93%
15:00 +17°C° 1.2 mm 5 mps 746 mmHg 92%
16:00 +19°C° 1.2 mm 5 mps 746 mmHg 91%
17:00 +20°C° 1.2 mm 6 mps 745 mmHg 90%
18:00 +20°C° 0.9 mm 5 mps 745 mmHg 91%
19:00 +19°C° 0.9 mm 4 mps 745 mmHg 92%
20:00 +19°C° 0.9 mm 3 mps 745 mmHg 93%
21:00 +18°C° 0.1 mm 3 mps 746 mmHg 95%
22:00 +18°C° 0.1 mm 3 mps 746 mmHg 96%
23:00 +17°C° 0.1 mm 3 mps 746 mmHg 97%

Day after tomorrow, 11 July, Saturday

Time Temperature Precipitation Wind Pressure Humidity
00:00 +18°C° 0 mm 3 mps 746 mmHg 97%
01:00 +18°C° 0 mm 3 mps 746 mmHg 97%
02:00 +18°C° 0 mm 3 mps 746 mmHg 97%
03:00 +18°C° 0 mm 4 mps 746 mmHg 97%
04:00 +18°C° 0 mm 4 mps 746 mmHg 97%
05:00 +17°C° 0 mm 5 mps 745 mmHg 97%
06:00 +19°C° 0.1 mm 5 mps 746 mmHg 94%
07:00 +20°C° 0.1 mm 5 mps 746 mmHg 92%
08:00 +21°C° 0.1 mm 6 mps 746 mmHg 90%
09:00 +22°C° 0.1 mm 6 mps 746 mmHg 88%
10:00 +22°C° 0.1 mm 5 mps 747 mmHg 86%
11:00 +23°C° 0.1 mm 5 mps 747 mmHg 84%
12:00 +23°C° 0.1 mm 5 mps 747 mmHg 77%
13:00 +25°C° 0.1 mm 5 mps 748 mmHg 70%
14:00 +26°C° 0.1 mm 5 mps 748 mmHg 63%
15:00 +25°C° 0 mm 5 mps 748 mmHg 64%
16:00 +25°C° 0 mm 4 mps 748 mmHg 64%
17:00 +24°C° 0 mm 3 mps 749 mmHg 64%
18:00 +22°C° 0 mm 3 mps 749 mmHg 68%
19:00 +20°C° 0 mm 3 mps 749 mmHg 72%
20:00 +18°C° 0 mm 2 mps 749 mmHg 76%
21:00 +18°C° 0 mm 2 mps 749 mmHg 75%
22:00 +17°C° 0 mm 3 mps 750 mmHg 75%
23:00 +16°C° 0 mm 3 mps 750 mmHg 74%

12 July, Sunday

Time Temperature Precipitation Wind Pressure Humidity
00:00 +16°C° 0.1 mm 3 mps 750 mmHg 76%
01:00 +14°C° 0.1 mm 3 mps 750 mmHg 77%
02:00 +14°C° 0.1 mm 3 mps 750 mmHg 79%
03:00 +14°C° 0.3 mm 3 mps 750 mmHg 83%
04:00 +13°C° 0.3 mm 3 mps 750 mmHg 88%
05:00 +13°C° 0.3 mm 3 mps 750 mmHg 92%
06:00 +13°C° 0.8 mm 3 mps 750 mmHg 93%
07:00 +13°C° 0.8 mm 3 mps 750 mmHg 94%
08:00 +13°C° 0.8 mm 3 mps 750 mmHg 96%
09:00 +13°C° 0.1 mm 3 mps 750 mmHg 94%
10:00 +13°C° 0.1 mm 3 mps 751 mmHg 92%
11:00 +14°C° 0.1 mm 4 mps 751 mmHg 90%
12:00 +14°C° 0 mm 4 mps 751 mmHg 88%
13:00 +14°C° 0 mm 4 mps 751 mmHg 86%
14:00 +15°C° 0 mm 4 mps 751 mmHg 83%
15:00 +15°C° 0 mm 4 mps 750 mmHg 82%
16:00 +16°C° 0 mm 3 mps 750 mmHg 80%
17:00 +17°C° 0 mm 3 mps 750 mmHg 79%
18:00 +16°C° 0 mm 3 mps 750 mmHg 81%
19:00 +14°C° 0 mm 3 mps 750 mmHg 83%
20:00 +14°C° 0 mm 3 mps 750 mmHg 85%
21:00 +13°C° 0 mm 3 mps 750 mmHg 86%
22:00 +13°C° 0 mm 3 mps 750 mmHg 86%
23:00 +13°C° 0 mm 3 mps 749 mmHg 87%

13 July, Monday

Time Temperature Precipitation Wind Pressure Humidity
00:00 +12°C° 0 mm 3 mps 749 mmHg 89%
01:00 +12°C° 0 mm 3 mps 749 mmHg 91%
02:00 +12°C° 0 mm 3 mps 748 mmHg 93%
03:00 +12°C° 0 mm 3 mps 748 mmHg 92%
04:00 +12°C° 0 mm 4 mps 747 mmHg 90%
05:00 +13°C° 0 mm 4 mps 747 mmHg 88%
06:00 +13°C° 0 mm 4 mps 747 mmHg 87%
07:00 +14°C° 0 mm 4 mps 747 mmHg 85%
08:00 +14°C° 0 mm 4 mps 747 mmHg 83%
09:00 +14°C° 0.5 mm 4 mps 747 mmHg 87%
10:00 +13°C° 0.5 mm 4 mps 746 mmHg 90%
11:00 +13°C° 0.5 mm 3 mps 746 mmHg 94%
12:00 +14°C° 0.6 mm 3 mps 746 mmHg 93%
13:00 +14°C° 0.6 mm 4 mps 746 mmHg 93%
14:00 +15°C° 0.6 mm 4 mps 745 mmHg 92%
15:00 +15°C° 0 mm 4 mps 745 mmHg 91%
16:00 +17°C° 0 mm 4 mps 745 mmHg 89%
17:00 +17°C° 0 mm 4 mps 745 mmHg 87%
18:00 +17°C° 0 mm 4 mps 745 mmHg 88%
19:00 +15°C° 0 mm 4 mps 744 mmHg 90%
20:00 +15°C° 0 mm 4 mps 744 mmHg 91%
21:00 +14°C° 0 mm 4 mps 744 mmHg 92%
22:00 +14°C° 0 mm 4 mps 744 mmHg 93%
23:00 +14°C° 0 mm 4 mps 744 mmHg 94%

14 July, Tuesday

Time Temperature Precipitation Wind Pressure Humidity
00:00 +14°C° 0 mm 4 mps 743 mmHg 93%
01:00 +14°C° 0 mm 4 mps 743 mmHg 93%
02:00 +15°C° 0 mm 4 mps 743 mmHg 93%
03:00 +14°C° 0 mm 4 mps 743 mmHg 93%
04:00 +14°C° 0 mm 4 mps 743 mmHg 93%
05:00 +14°C° 0 mm 4 mps 742 mmHg 93%
06:00 +15°C° 0 mm 4 mps 742 mmHg 92%
07:00 +15°C° 0 mm 4 mps 742 mmHg 91%
08:00 +15°C° 0 mm 4 mps 742 mmHg 91%
09:00 +18°C° 0 mm 4 mps 742 mmHg 86%
10:00 +19°C° 0 mm 5 mps 742 mmHg 82%
11:00 +20°C° 0 mm 5 mps 742 mmHg 78%
12:00 +20°C° 0 mm 5 mps 742 mmHg 79%
13:00 +20°C° 0 mm 5 mps 742 mmHg 80%
14:00 +19°C° 0 mm 5 mps 741 mmHg 81%
15:00 +19°C° 0 mm 5 mps 741 mmHg 82%
16:00 +19°C° 0 mm 6 mps 741 mmHg 83%
17:00 +17°C° 0 mm 6 mps 740 mmHg 84%
18:00 +17°C° 0 mm 5 mps 740 mmHg 85%
19:00 +17°C° 0 mm 5 mps 740 mmHg 86%
20:00 +16°C° 0 mm 5 mps 739 mmHg 86%
21:00 +16°C° 0.3 mm 6 mps 739 mmHg 89%
22:00 +16°C° 0.3 mm 6 mps 738 mmHg 92%
23:00 +16°C° 0.3 mm 6 mps 738 mmHg 94%
Show more